World > North America > United States > South Dakota > Belle Fourche  

Belle Fourche, SD Hourly Weather Updates

Feedback E-mail the Weather

Quick Clicks

Belle Fourche, SD Weather Maps

°F °C°F °C
Belle Fourche Weather Map
UTC Time: 5/23/2024, 21:03
Your Time:

Belle Fourche, SD Regional Weather

Expires:202405232200;;740202
ASUS43 KFSD 232102
RWRSD 

WEATHER ROUNDUP FOR SOUTH DAKOTA
NATIONAL WEATHER SERVICE SIOUX FALLS SD
400 PM CDT THU MAY 23 2024

NOTE: "FAIR" INDICATES FEW OR NO CLOUDS BELOW 12,000 FEET WITH NO
SIGNIFICANT WEATHER AND/OR OBSTRUCTIONS TO VISIBILITY.



SDZ012>016-024>037-041>051-057-063-072>074-232200-
SOUTHWEST AND SOUTH CENTRAL SOUTH DAKOTA
  
CITY           SKY/WX    TMP DP  RH WIND       PRES   REMARKS
RAPID CTY ARPT CLOUDY    67  47  48 NE7       29.59R TC  19           
PIERRE         CLOUDY    79  60  52 S9        29.50F TC  26           
CUSTER         PTSUNNY   55  21  26 W18G38    29.70R TC  13           
ELLSWORTH AFB  PTSUNNY   67  42  39 NE6       29.57R TC  20           
PHILIP         CLOUDY    70  49  47 SW10      29.55R TC  21           
PINE RIDGE     PTSUNNY   71  39  31 W17G26    29.63R TC  22           
SPEARFISH      PTSUNNY   64  30  27 W18G26    29.61F TC  18           
WINNER         MOSUNNY   80  53  39 S25G37    29.56S TC  27           
$$
 

SKY/WX - Weather  TMP - Temperature  DP - Dew Point  RH - Humidity
WIND - Wind Direction/Speed PRES - Barometric Pressure VSB - Visibility
WCI - Wind Chill Index E13G22 Wind - East Wind 13 mph/Gusts of 22 mph

Trending Headlines

Trending Entertainment Headlines

Belle Fourche Radar Loop

Use the map search tool if you want to place a location marker on the radar map...

Belle Fourche Quick Facts

National Two Day Weather Forecast


E-mail the Belle Fourche Weather Forecast

Voice your opinion or tell us about page issues...